TimeCDT,TemperatureF,Dew PointF,Humidity,Sea Level PressureIn,VisibilityMPH,Wind Direction,Wind SpeedMPH,Gust SpeedMPH,PrecipitationIn,Events,Conditions,WindDirDegrees,DateUTC
12:56 AM,65.8,61.9,87,30.10,10.0,Calm,Calm,-,N/A,,Clear,0,2013-10-04 05:56:00
1:56 AM,63.9,63.0,97,30.10,10.0,Calm,Calm,-,N/A,,Clear,0,2013-10-04 06:56:00
2:56 AM,61.9,61.9,100,30.10,10.0,Calm,Calm,-,N/A,,Clear,0,2013-10-04 07:56:00
3:56 AM,63.9,63.0,97,30.10,10.0,Calm,Calm,-,N/A,,Clear,0,2013-10-04 08:56:00
4:56 AM,61.9,61.9,100,30.11,10.0,Calm,Calm,-,N/A,,Clear,0,2013-10-04 09:56:00
5:56 AM,61.9,61.9,100,30.12,10.0,South,4.6,-,N/A,,Clear,180,2013-10-04 10:56:00
6:56 AM,63.0,63.0,100,30.13,9.0,SSE,3.5,-,N/A,,Scattered Clouds,160,2013-10-04 11:56:00
7:56 AM,65.8,64.9,97,30.15,10.0,SE,3.5,-,N/A,,Scattered Clouds,140,2013-10-04 12:56:00
8:56 AM,70.0,64.9,84,30.16,10.0,SSE,5.8,-,N/A,,Mostly Cloudy,160,2013-10-04 13:56:00
9:56 AM,73.9,65.8,76,30.16,10.0,South,4.6,-,0.00,,Mostly Cloudy,180,2013-10-04 14:56:00
10:56 AM,75.9,68.9,79,30.15,10.0,South,5.8,-,0.00,,Mostly Cloudy,170,2013-10-04 15:56:00
11:56 AM,77.9,68.9,74,30.15,10.0,Variable,4.6,-,N/A,,Mostly Cloudy,0,2013-10-04 16:56:00
12:56 PM,79.9,68.0,67,30.12,10.0,SSE,6.9,-,N/A,,Scattered Clouds,160,2013-10-04 17:56:00
1:56 PM,82.9,68.9,62,30.10,10.0,South,5.8,-,N/A,,Scattered Clouds,180,2013-10-04 18:56:00
2:56 PM,82.9,68.9,62,30.09,10.0,Calm,Calm,-,N/A,,Overcast,0,2013-10-04 19:56:00
3:56 PM,84.9,68.9,59,30.08,10.0,South,3.5,-,N/A,,Mostly Cloudy,180,2013-10-04 20:56:00
4:56 PM,83.8,68.9,61,30.08,10.0,South,5.8,-,N/A,,Clear,190,2013-10-04 21:56:00
5:56 PM,81.9,70.0,67,30.08,10.0,South,4.6,-,N/A,,Mostly Cloudy,180,2013-10-04 22:56:00
6:56 PM,77.9,68.0,71,30.08,10.0,SE,4.6,-,N/A,,Clear,140,2013-10-04 23:56:00
7:56 PM,73.9,68.9,84,30.09,10.0,South,3.5,-,N/A,,Clear,190,2013-10-05 00:56:00
8:56 PM,72.0,68.9,90,30.11,10.0,Calm,Calm,-,N/A,,Partly Cloudy,0,2013-10-05 01:56:00
9:56 PM,70.0,68.9,96,30.12,10.0,South,3.5,-,N/A,,Clear,170,2013-10-05 02:56:00
10:56 PM,70.0,68.9,96,30.11,10.0,SSE,3.5,-,N/A,,Clear,150,2013-10-05 03:56:00
11:56 PM,68.9,68.9,100,30.11,8.0,Calm,Calm,-,N/A,,Clear,0,2013-10-05 04:56:00